Location: ??? ???
(33.5078°N, 35.4475°E)
Time: 19:27:24
(UTC+00:00)

Daily predictions for brighter satellites

Satellite Brightness Start Highest point End
(mag) Time Altitude Azimuth Time Altitude Azimuth Time Altitude Azimuth
Cosmos 2285 Rocket 4.1 17:09:56 10° S 17:16:19 74° ESE 17:22:45 10° NNE
Cosmos 2360 Rocket 3.0 17:13:21 10° SSE 17:18:13 31° ESE 17:23:06 10° NE
Okean-O 4.1 17:15:18 10° SSW 17:19:26 39° W 17:23:35 10° NNW
Meteor 2-10 4.5 17:14:35 10° N 17:19:27 43° E 17:24:24 10° SSE
Cosmos 1190 Rocket 4.1 17:14:17 10° NNW 17:19:36 72° ENE 17:24:53 10° SSE
SL-16 R/B 2.2 17:16:19 10° SSW 17:21:59 85° ESE 17:27:40 10° NNE
Cosmos 2322 Rocket 2.2 17:16:27 10° S 17:22:03 64° ESE 17:27:41 10° NNE
Cosmos 1339 Rocket 4.5 17:21:30 10° S 17:27:40 74° E 17:33:47 10° N
Okean 2 Rocket 3.4 17:26:13 10° N 17:30:43 72° W 17:35:12 10° S
FALCON 9 DEB 2.7 17:29:31 10° SW 17:32:34 82° SE 17:35:40 10° NE
Cosmos 1674 4.4 17:31:47 10° SE 17:33:59 16° E 17:36:18 10° NE
Okean 2 3.3 17:30:50 10° S 17:34:54 80° E 17:38:59 10° N
Cosmos 1842 4.0 17:31:49 10° SSW 17:35:39 55° W 17:39:32 10° N
Cosmos 1975 Rocket 4.3 17:32:54 10° SE 17:36:19 23° E 17:39:46 10° NE
Cosmos 1726 2.7 17:33:21 10° N 17:36:45 37° E 17:40:00 11° SSE
Cosmos 1400 Rocket 3.5 17:33:18 10° NNW 17:37:04 53° W 17:40:50 10° S
OBJECT-B 0.9 17:34:50 10° S 17:38:01 75° W 17:41:12 10° NNW
ASTRO E2 2.9 17:35:26 10° WSW 17:39:15 49° SSE 17:43:06 10° E
Cosmos 2227 4.2 17:34:13 10° NNW 17:39:51 74° ENE 17:45:27 10° SSE
ATLAS 2A CENTAUR R/B 4.4 17:13:30 10° SW 17:40:03 39° S 17:46:52 11° ESE
FALCON 9 DEB 2.7 17:37:17 10° SW 17:40:21 70° SE 17:43:27 10° NE
Cosmos 2151 Rocket 3.9 17:36:50 10° NNW 17:41:12 70° W 17:45:33 10° S
Cosmos 1674 Rocket 4.2 17:37:40 10° SSW 17:41:59 58° W 17:46:18 10° N
USA 186 2.9 17:40:24 10° SSW 17:43:00 37° W 17:45:48 10° NNW
FALCON 9 DEB 2.9 17:40:00 10° SW 17:43:04 80° NW 17:46:10 10° NE
Cosmos 1953 4.4 17:41:22 10° NE 17:43:07 12° ENE 17:44:40 10° E
MOS 1 4.4 17:38:47 10° SSE 17:44:23 62° ENE 17:50:00 10° N
Ariane Rocket 3.2 17:41:04 10° SSE 17:46:01 58° ENE 17:51:02 10° N
COSMOS 2428 4.3 17:45:21 13° ESE 17:47:20 15° E 17:50:30 10° ENE
Lacrosse 5 2.1 17:42:22 10° NNW 17:47:24 62° NE 17:51:28 15° SE
Yuri Rocket 4.4 17:42:32 10° SW 17:47:47 43° SSE 17:54:56 10° E
Resurs 01 Rocket 2.6 17:44:36 14° SE 17:47:50 31° ENE 17:51:42 10° N
SL-24 DEB 4.3 17:45:13 10° S 17:49:56 84° W 17:54:43 10° N
Cosmos 1954 Rocket 4.0 17:45:58 10° NNW 17:51:18 86° ENE 17:56:28 11° SSE
Cosmos 2237 4.2 17:45:49 10° SSW 17:51:30 82° ESE 17:57:13 10° NNE
SPOT 3 Rocket 4.5 17:47:51 14° SE 17:51:36 32° ENE 17:56:09 10° N
Cosmos 676 Rocket 4.0 17:47:55 10° NNW 17:53:17 87° ENE 17:58:23 11° SSE
Cosmos 1844 Rocket 4.2 17:51:20 10° N 17:55:45 23° ENE 17:59:10 14° ESE
Cosmos 1470 2.8 17:58:38 10° N 18:02:36 83° W 18:06:09 12° S
IRS-1A Rocket 4.4 18:00:48 10° SSE 18:06:42 84° WSW 18:12:31 10° NNW
Cosmos 1110 Rocket 3.9 18:03:51 10° S 18:08:57 67° ESE 18:14:07 10° NNE
Cosmos 2263 Rocket 3.0 18:05:07 10° NNW 18:10:34 49° WSW 18:16:00 10° S
In-Cosmos 22 4.0 18:05:20 10° S 18:10:37 87° E 18:15:55 10° N
ATLAS 3B R/B 2.5 18:09:37 10° SSW 18:16:00 64° ESE 18:22:34 10° NE
Meteor 2-20 Rocket 4.4 18:11:46 10° S 18:17:53 89° E 18:24:01 10° N
Cosmos 1626 2.8 18:20:35 32° ESE 18:21:13 35° E 18:24:36 10° NNE
Cosmos 2100 Rocket 4.4 18:16:41 10° N 18:22:46 46° E 18:26:04 25° SE
Cosmos 2333 4.2 18:18:53 10° S 18:24:35 67° ESE 18:30:16 10° NNE
ARIANE 5 R/B 4.0 18:23:29 21° E 18:24:39 23° ENE 18:28:10 10° NNE
Cosmos 1908 4.0 18:21:25 10° NNE 18:24:57 34° E 18:25:37 31° ESE
USA 81 4.0 18:22:20 10° N 18:27:37 89° W 18:31:22 20° S
Cosmos 1455 Rocket 3.4 18:24:26 10° N 18:28:46 50° E 18:30:17 34° SE
IGS 5A 3.4 18:26:34 27° S 18:28:48 86° WSW 18:32:59 10° NNW
Okean 1 Rocket 4.2 18:25:23 10° NNW 18:29:30 41° W 18:33:30 11° SSW
Cosmos 1315 Rocket 4.2 18:30:26 10° NNW 18:34:14 37° W 18:37:23 14° SSW
Cosmos 2173 Rocket 4.2 18:29:39 10° N 18:35:55 56° E 18:39:00 30° SSE
Meteor 2-5 Rocket 4.5 18:36:19 29° ESE 18:37:26 32° E 18:42:19 10° NNE
Cosmos 2219 Rocket 2.2 18:33:29 18° S 18:37:36 58° ESE 18:43:10 10° NNE
Cosmos 1461 3.2 18:34:11 10° NNW 18:38:10 48° ENE 18:39:03 40° E
Cosmos 2333 Rocket 2.1 18:32:54 10° SSW 18:38:37 72° ESE 18:44:20 10° NNE
ATLAS CENTAUR R/B 3.2 18:37:32 10° N 18:40:58 21° NE 18:42:13 19° ENE
SL-4 R/B 1.9 18:38:34 10° SW 18:42:55 67° SE 18:46:57 10° NE
ERS-1 Rocket 3.9 18:44:08 28° E 18:45:17 32° ENE 18:49:42 10° N
Cosmos 1025 Rocket 2.9 18:46:54 36° S 18:48:39 89° E 18:53:01 10° N
Spot 2 Rocket 3.7 18:48:19 40° SE 18:49:47 54° ENE 18:54:43 10° N
Cosmos 1850 Rocket 4.1 18:45:50 10° NNW 18:51:05 73° WSW 18:53:17 35° S
Cosmos 1536 Rocket 3.9 18:51:06 45° ESE 18:51:21 46° E 18:55:36 10° NNE
USA 215 4.0 18:46:13 10° ENE 18:50:57 29° ESE 18:50:57 29° ESE
Cosmos 1844 3.9 18:46:56 10° NNW 18:52:26 56° ENE 18:54:09 40° ESE
Cosmos 1725 Rocket 4.5 18:48:19 10° N 18:54:08 42° E 18:55:46 35° ESE
Cosmos 2237 Rocket 3.7 19:00:13 20° E 19:00:13 20° E 19:03:01 10° NE
SPOT 1/Viking Rocket 3.6 19:00:04 39° S 19:01:58 75° WSW 19:07:06 10° NNW
Cosmos 2360 Rocket 4.0 18:57:11 10° WSW 19:02:06 30° WNW 19:07:01 10° N
Terra 2.8 19:02:26 31° ENE 19:02:44 31° ENE 19:06:55 10° N
CARTOSAT-1 3.4 19:03:11 65° ESE 19:03:36 71° ENE 19:07:53 10° N
SL-14 R/B 3.2 19:06:07 78° SSW 19:06:23 87° W 19:10:25 10° N
Meteor 1-24 Rocket 3.7 19:09:15 49° ESE 19:09:42 51° E 19:14:56 10° NNE
SPOT 5 3.1 19:09:02 51° ESE 19:09:46 57° ENE 19:14:37 10° N
Meteor 2-11 Rocket 4.4 19:06:08 10° N 19:12:15 83° W 19:14:28 42° S
USA 245 4.2 19:11:05 44° SSW 19:12:28 64° W 19:18:03 10° NNW
Cosmos 1302 Rocket 4.3 19:10:59 24° SSW 19:14:09 66° WNW 19:19:24 10° N
Cosmos 1802 Rocket 4.0 19:08:30 10° N 19:14:50 88° W 19:17:06 43° S
Cosmos 1459 Rocket 4.1 19:10:30 10° NNW 19:16:30 67° W 19:19:00 36° SSW
ASTRO E2 3.8 19:15:34 10° W 19:18:00 35° WSW 19:18:00 35° WSW
Cosmos 1953 3.5 19:15:53 10° NNW 19:19:35 35° W 19:20:22 32° WSW
Resurs 01 Rocket 3.9 19:22:10 13° SW 19:24:19 18° W 19:27:20 10° NW
H-2A R/B 4.2 19:20:31 10° NNE 19:23:26 42° NE 19:23:26 42° NE
Lacrosse 5 3.9 19:26:51 10° W 19:29:52 16° WSW 19:30:41 15° SW
COSMOS 2428 3.2 19:27:15 21° SW 19:31:00 59° WNW 19:36:40 10° NNE
Cosmos 1300 3.6 19:28:40 10° N 19:31:23 45° N 19:31:23 45° N
Cosmos 1340 4.2 19:32:47 30° W 19:33:10 30° WNW 19:36:33 10° NNW
NOSS 0 Rocket 3.8 19:34:04 63° SSE 19:34:53 71° ESE 19:41:05 10° NNE
Cosmos 2278 Rocket 3.5 19:33:51 10° N 19:38:33 26° ENE 19:39:05 26° ENE
Cosmos 1844 Rocket 3.4 19:34:26 10° NW 19:39:46 43° WSW 19:40:50 38° SW
Yuri Rocket 4.4 19:38:29 10° WSW 19:45:07 60° S 19:46:19 55° SE
Cosmos 1867 4.3 19:42:52 10° NNW 19:48:02 40° ENE 19:48:15 40° ENE
Cosmos 968 Rocket 3.6 19:48:50 10° NNW 19:53:29 69° NNE 19:53:29 69° NNE
Cosmos 1992 Rocket 4.2 19:57:54 64° W 19:58:07 64° WNW 20:03:18 10° N
Cosmos 1486 Rocket 4.3 19:53:59 10° N 19:58:33 57° NE 19:58:33 57° NE
Cosmos 2233 Rocket 3.8 19:54:21 10° N 20:00:32 83° W 20:01:00 76° SSW
ARIANE 5 R/B 4.3 20:01:01 25° W 20:01:01 25° W 20:04:39 10° NW
Cosmos 1447 Rocket 4.4 20:00:15 69° SW 20:00:58 79° W 20:07:11 10° N
Meteor 2-10 Rocket 3.7 19:57:14 10° N 20:01:28 62° NNE 20:01:28 62° NNE
ATLAS CENTAUR R/B 3.1 20:10:25 53° NE 20:10:25 53° NE 20:17:17 10° NE
Cosmos 1980 3.7 20:09:27 75° WNW 20:09:28 75° WNW 20:15:10 10° NNE
Cosmos 1346 Rocket 4.5 20:11:36 32° NW 20:11:36 32° NW 20:14:10 10° N
ATLAS CENTAUR R/B 3.3 20:15:46 10° NW 20:18:22 28° WNW 20:18:22 28° WNW
Cosmos 1607 4.5 20:22:27 10° NNW 20:28:36 49° ENE 20:28:47 49° ENE
USA 215 3.6 20:28:33 10° NE 20:34:58 62° NW 20:38:13 30° WSW
SL-16 R/B 3.1 20:42:05 40° NE 20:42:05 40° NE 20:45:47 10° NNE
Terra 3.8 20:41:19 20° W 20:41:19 20° W 20:44:04 10° NW
Cosmos 2237 Rocket 3.1 20:41:59 39° WNW 20:42:30 40° WNW 20:47:46 10° N
Cosmos 1464 Rocket 4.1 20:43:53 10° N 20:49:44 76° N 20:49:44 76° N
Cosmos 2278 Rocket 3.6 21:17:31 10° NW 21:20:55 29° WNW 21:20:55 29° WNW
Cosmos 2034 Rocket 4.3 21:20:10 10° NNW 21:25:17 59° NW 21:25:17 59° NW
SJ 16-02 3.4 21:38:35 10° N 21:40:30 25° N 21:40:30 25° N
Cosmos 1943 Rocket 3.0 21:43:15 10° NNW 21:47:23 47° NNE 21:47:23 47° NNE
USA 229 DEB 3.8 21:51:22 62° NW 21:51:22 62° NW 21:57:36 10° NNE
USA 229 3.8 21:51:30 63° NW 21:51:30 63° NW 21:57:41 10° NNE
Cosmos 1943 4.2 21:54:57 39° NE 21:54:57 39° NE 21:58:40 10° NNE
CZ-2D R/B 4.4 21:57:14 10° ENE 21:59:03 14° E 21:59:03 14° E
Cosmos 1603 4.4 22:04:20 48° NE 22:04:20 48° NE 22:08:25 10° NNE
NOSS 3-1 (A) 4.1 22:11:32 42° NW 22:11:32 42° NW 22:16:33 10° NNE
SL-16 R/B 4.3 22:23:55 16° WNW 22:24:42 17° WNW 22:28:18 10° NNW
Cosmos 2279 Rocket 4.3 22:35:08 10° NNW 22:40:23 56° NW 22:40:23 56° NW
Cosmos 2369 Rocket 2.6 22:37:03 10° NNW 22:41:39 59° NNW 22:41:39 59° NNW
ATLAS 5 CENTAUR R/B 3.4 22:47:38 25° NNE 22:47:38 25° NNE 22:49:28 10° NNE
USA 267 3.1 22:46:53 86° SW 22:46:53 86° SW 22:53:28 10° NW
Cosmos 2263 4.4 22:52:54 10° NNW 22:57:48 67° N 22:57:48 67° N
Cosmos 2098 Rocket 4.0 22:59:51 55° NNW 22:59:51 55° NNW 23:03:35 10° N
Cosmos 2208 Rocket 4.3 23:03:12 67° NE 23:03:12 67° NE 23:07:57 10° NNE
Cosmos 2221 4.0 23:01:29 10° N 23:03:51 32° N 23:03:51 32° N
Nadezhda 4 Rocket 4.3 23:10:11 53° WNW 23:10:11 53° WNW 23:15:51 10° N
Cosmos 2026 Rocket 4.0 23:10:41 65° SE 23:11:13 69° E 23:17:30 10° NNE
Meteor 2-15 4.5 23:06:53 10° N 23:13:00 71° E 23:13:38 66° ESE
Resurs 1-4 Rocket 2.1 23:13:24 10° N 23:18:23 77° NNW 23:18:23 77° NNW
AQUA 4.2 23:16:34 10° NNE 23:20:46 58° ENE 23:20:46 58° ENE
Helios 1B rocket 3.5 23:19:24 10° NNE 23:22:14 43° NNE 23:22:14 43° NNE
ADEOS II 2.5 23:23:25 10° NNE 23:28:33 52° E 23:28:57 51° ESE
X-37B 3.9 23:33:46 10° NNW 23:35:19 13° NNE 23:36:54 10° NE
NPP 3.5 23:29:57 10° N 23:35:20 74° WNW 23:35:26 74° W
Cosmos 1932 4.5 23:30:41 10° NW 23:36:16 57° W 23:36:16 57° W
CZ-2D R/B 2.4 23:35:25 10° N 23:40:22 51° WNW 23:40:22 51° WNW
IDEFIX/ARIANE 42P 3.8 23:36:32 10° NNE 23:41:16 34° E 23:42:44 29° SE
Meteor 2-3 Rocket 3.6 23:41:21 70° SSE 23:41:59 83° E 23:47:35 10° N
Lacrosse 4 Rocket 1.9 23:42:56 10° NNW 23:46:46 55° NE 23:46:46 55° NE
SL-16 R/B 2.4 23:46:03 60° SSW 23:47:07 73° WSW 23:53:18 10° NNW
Aureole 3 Rocket 3.7 23:44:05 10° NNW 23:48:22 57° W 23:48:22 57° W
UNK 3.9 23:51:07 58° WNW 23:51:07 58° WNW 23:55:05 10° NNW
Cosmos 1092 Rocket 4.5 23:51:32 40° W 23:52:00 40° W 23:57:45 10° N
